This is the latest recevied weather packets stored in our database for station/object W9WRP. If no packets are shown the sender has not sent any weather packets the latest 10 day(s).
| Time | Temp. | Humidity | Pressure | Rain* | Wind** | Luminosity | Snow |
|---|---|---|---|---|---|---|---|
| 1788019994 | 38.33° C | 30% | 1015.6 hPa | 0 mm | - | 175 W/m² | - |
| 1788019693 | 37.78° C | 31% | 1015.3 hPa | 0 mm | - | 257 W/m² | - |
| 1788019392 | 37.22° C | 34% | 1015.4 hPa | 0 mm | - | 165 W/m² | - |
| 1788019091 | 37.22° C | 34% | 1015.4 hPa | 0 mm | - | 163 W/m² | - |
| 1788018790 | 36.67° C | 34% | 1015.4 hPa | 0 mm | - | 168 W/m² | - |
| 1788018485 | 37.22° C | 34% | 1015.1 hPa | 0 mm | - | 84 W/m² | - |
| 1788018184 | 37.22° C | 33% | 1015.4 hPa | 0 mm | - | 115 W/m² | - |
| 1788017881 | 36.67° C | 34% | 1015.3 hPa | 0 mm | - | 230 W/m² | - |
| 1788017576 | 36.67° C | 35% | 1015.1 hPa | 0 mm | - | 122 W/m² | - |
| 1788017273 | 36.67° C | 36% | 1015 hPa | 0 mm | - | 161 W/m² | - |
| 1788016969 | 36.11° C | 36% | 1015.4 hPa | 0 mm | - | 97 W/m² | - |
| 1788016669 | 35.56° C | 37% | 1015.5 hPa | 0 mm | - | 86 W/m² | - |
| 1788016367 | 35.56° C | 38% | 1015.3 hPa | 0 mm | - | 85 W/m² | - |
| 1788016067 | 35° C | 38% | 1015 hPa | 0 mm | - | 67 W/m² | - |
| 1788015765 | 35° C | 39% | 1015.1 hPa | 0 mm | - | 60 W/m² | - |
| 1788015461 | 35° C | 39% | 1015.1 hPa | 0 mm | - | 57 W/m² | - |
| 1788015156 | 34.44° C | 39% | 1014.8 hPa | 0 mm | - | 52 W/m² | - |
| 1788014854 | 34.44° C | 38% | 1015.1 hPa | 0 mm | - | 52 W/m² | - |
| 1788014554 | 34.44° C | 38% | 1014.7 hPa | 0 mm | - | 51 W/m² | - |
| 1788014250 | 34.44° C | 39% | 1014.8 hPa | 0 mm | - | 49 W/m² | - |
| 1788013945 | 34.44° C | 38% | 1015 hPa | 0 mm | - | 47 W/m² | - |
| 1788013640 | 34.44° C | 38% | 1014.9 hPa | 0 mm | - | 45 W/m² | - |
| 1788013334 | 33.89° C | 39% | 1014.8 hPa | 0 mm | - | 43 W/m² | - |
| 1788013033 | 33.89° C | 39% | 1014.7 hPa | 0 mm | - | 42 W/m² | - |
| 1788012727 | 33.89° C | 39% | 1014.9 hPa | 0 mm | - | 61 W/m² | - |
* Rain latest hour (hover to see other rain measurements)
** Current wind speed in m/s (hover to see current wind gust speed)